Weather History for McGuire AFB, NJ

Change the Weather History Date:

Tuesday, February 11, 2014

  Actual Average Record
Temperature  
Mean Temperature 16 °F -  
Max Temperature 24 °F 41 °F 69 °F (2009)
Min Temperature 9 °F 23 °F 9 °F (2014)
Degree Days  
Heating Degree Days 48    
Moisture  
Dew Point 3 °F    
Average Humidity 55    
Maximum Humidity 78    
Minimum Humidity 40    
Precipitation  
Precipitation 0.00 in - - ()
Sea Level Pressure  
Sea Level Pressure 30.38 in    
Wind  
Wind Speed 6 mph (NW)    
Max Wind Speed 16 mph    
Max Gust Speed 21 mph    
Visibility 10 miles    
Events      
Averages and records for this station are not official NWS values.
T = Trace of Precipitation, MM = Missing Value Source: NWS Daily Summary

Daily Weather History Graph

Daily Weather History Graph

Search for Another Location

Airport:

Trip Planner

Search our weather history database for the weather conditions in past years. The results will help you decide how hot, cold, wet, or windy it might be!

Date:

Astronomy

Feb. 11, 2014 Rise Set
Actual Time 6:56 AM EST 5:29 PM EST
Civil Twilight 6:28 AM EST 5:57 PM EST
Nautical Twilight 5:56 AM EST 6:29 PM EST
Astronomical Twilight 5:24 AM EST 7:00 PM EST
Moon 2:47 PM EST (2/11) 4:31 AM EST (2/11)
Length of Visible Light 11h 29m
Length of Day
10h 33m
Waxing Gibbous, 90% of the Moon is Illuminated
Feb 11
Waxing Gibbous
Feb 14
Full
Feb 22
Last Quarter
Mar 1
New
Mar 8
First Quarter

Hourly Weather History & Observations

Time (EST) Temp. Windchill Dew Point Humidity Pressure Visibility Wind Dir Wind Speed Gust Speed Precip Events Conditions
12:58 AM 12.7 °F - 3.6 °F 67% 30.30 in 10.0 mi West 2.3 mph - N/A   Clear
1:58 AM 12.0 °F - 4.5 °F 72% 30.31 in 10.0 mi West 2.3 mph - N/A   Clear
2:58 AM 9.5 °F - 3.9 °F 78% 30.31 in 10.0 mi Calm Calm - N/A   Clear
3:58 AM 13.3 °F 7.3 °F 4.1 °F 67% 30.32 in 10.0 mi NNW 3.5 mph - N/A   Clear
4:58 AM 14.0 °F 6.5 °F 4.6 °F 66% 30.34 in 10.0 mi NNW 4.6 mph - N/A   Clear
5:58 AM 14.7 °F 7.3 °F 3.0 °F 60% 30.36 in 10.0 mi NNW 4.6 mph - N/A   Clear
6:58 AM 11.5 °F 2.1 °F 2.3 °F 67% 30.37 in 10.0 mi NNW 5.8 mph - N/A   Clear
7:58 AM 14.5 °F 5.7 °F 3.9 °F 63% 30.39 in 10.0 mi North 5.8 mph - N/A   Clear
8:58 AM 19.2 °F 7.0 °F 4.5 °F 53% 30.41 in 10.0 mi NW 11.5 mph - N/A   Clear
9:58 AM 20.8 °F 6.8 °F 4.1 °F 49% 30.42 in 10.0 mi WNW 16.1 mph - N/A   Clear
10:58 AM 21.6 °F 8.8 °F 4.1 °F 47% 30.41 in 10.0 mi NW 13.8 mph - N/A   Clear
11:58 AM 22.6 °F 9.6 °F 4.3 °F 45% 30.38 in 10.0 mi WNW 15.0 mph - N/A   Clear
12:58 PM 23.4 °F 10.6 °F 4.3 °F 44% 30.35 in 10.0 mi NW 15.0 mph 20.7 mph N/A   Partly Cloudy
1:58 PM 24.1 °F 11.0 °F 4.6 °F 43% 30.35 in 10.0 mi NW 16.1 mph - N/A   Clear
2:58 PM 24.4 °F 13.0 °F 4.6 °F 43% 30.35 in 10.0 mi WNW 12.7 mph 18.4 mph N/A   Clear
3:58 PM 23.9 °F 15.8 °F 2.8 °F 40% 30.36 in 10.0 mi West 6.9 mph - N/A   Clear
4:58 PM 23.5 °F 12.4 °F 2.7 °F 41% 30.37 in 10.0 mi WNW 11.5 mph - N/A   Clear
5:58 PM 20.7 °F 11.9 °F 3.0 °F 47% 30.39 in 10.0 mi WNW 6.9 mph - N/A   Clear
6:58 PM 19.9 °F 14.9 °F 1.4 °F 45% 30.41 in 10.0 mi West 3.5 mph - N/A   Clear
7:58 PM 18.3 °F 8.2 °F 2.3 °F 50% 30.43 in 10.0 mi WNW 8.1 mph - N/A   Clear
8:58 PM 18.0 °F 7.7 °F 3.2 °F 53% 30.44 in 10.0 mi NW 8.1 mph - N/A   Clear
9:58 PM 15.4 °F 4.6 °F 2.8 °F 58% 30.47 in 10.0 mi NNW 8.1 mph - N/A   Clear
10:58 PM 14.2 °F 1.4 °F 1.8 °F 58% 30.47 in 10.0 mi NNW 10.4 mph - N/A   Clear
11:58 PM 13.5 °F 2.2 °F 1.4 °F 59% 30.48 in 10.0 mi North 8.1 mph - N/A   Clear